CW3847 La Orotava ES current weather conditions

sailwx.info

Wind from 040 at 2 knots gusting 3

Air temperature 21.7° C
Dewpoint 16.2° C

Last reported at 2014-Jul-28 19:07 UTC.
Time now 2014-Jul-28 20:38 UTC

Location: N 28°23' W 016°31'.
View on Google Maps.

See reports from other nearby stations

  
Tides and Currents Weather Stations Pressure Air Temp Water Temp Dewpoint Dewpoint Depression Visibility Wind Speed Wind Dir Waves Ship Positions
date/time (UTC)wind fromknots sea level pressurealtimeterstation pressurevisibilityair tempwater tempwave heightnotes
2014-Jul-28 19:07 040 2 gusting 3 21.7
2014-Jul-28 18:57 327 2 gusting 7 21.7
2014-Jul-28 18:47 339 2 gusting 7 22.2
2014-Jul-28 18:37 321 4 gusting 6 22.2
2014-Jul-28 18:17 323 6 gusting 6 22.2
2014-Jul-28 18:07 005 3 gusting 6 22.2
2014-Jul-28 17:57 012 6 gusting 8 22.8
2014-Jul-28 17:47 350 6 gusting 7 22.8
2014-Jul-28 17:37 005 3 gusting 8 22.8
2014-Jul-28 16:47 038 4 gusting 6 22.2
2014-Jul-28 16:37 053 5 gusting 6 22.2
2014-Jul-28 15:37 325 6 gusting 8 22.2
2014-Jul-28 15:27 360 6 gusting 7 22.8
2014-Jul-28 15:07 342 4 gusting 8 22.8
2014-Jul-28 14:57 022 6 gusting 7 22.8
2014-Jul-28 14:47 350 8 gusting 8 22.8
2014-Jul-28 14:37 011 2 gusting 7 23.3
2014-Jul-28 13:57 350 4 gusting 7 22.8
2014-Jul-28 13:47 323 6 gusting 9 22.2
2014-Jul-28 13:37 355 6 gusting 8 22.8
2014-Jul-28 13:27 005 6 gusting 8 22.8
2014-Jul-28 13:17 058 5 gusting 8 22.8
2014-Jul-28 13:07 011 7 gusting 8 22.8
2014-Jul-28 12:37 355 8 gusting 12 22.8
2014-Jul-28 12:17 355 6 gusting 6 22.2
2014-Jul-28 11:58 011 6 gusting 8 21.7
2014-Jul-28 11:48 355 6 gusting 8 21.7
2014-Jul-28 11:08 307 6 gusting 6 21.7
2014-Jul-28 10:57 017 2 gusting 6 21.7
2014-Jul-28 10:48 051 8 gusting 8 21.7
2014-Jul-28 10:38 005 3 gusting 10 21.7
2014-Jul-28 10:28 332 4 gusting 8 21.7
2014-Jul-28 09:38 355 3 gusting 7 22.2
2014-Jul-28 09:28 032 2 gusting 3 22.2
2014-Jul-28 09:18 093 0 gusting 4 21.7
2014-Jul-28 08:58 067 2 gusting 2 21.1
2014-Jul-28 08:48 075 2 gusting 5 21.1
2014-Jul-28 08:28 114 0 gusting 2 20.6
2014-Jul-28 08:18 088 1 gusting 1 20.6
2014-Jul-28 07:58 060 0 gusting 1 19.4
2014-Jul-28 07:48 219 2 gusting 3 18.9
2014-Jul-28 07:38 183 0 gusting 4 17.8
2014-Jul-28 07:18 154 5 gusting 6 16.7
2014-Jul-28 07:08 155 2 gusting 5 16.7
2014-Jul-28 06:58 184 0 gusting 0 16.7
2014-Jul-28 06:38 172 1 gusting 1 16.7
2014-Jul-28 06:28 187 2 gusting 2 16.7
2014-Jul-28 06:18 158 0 gusting 3 16.7
2014-Jul-28 06:08 190 2 gusting 5 16.7
2014-Jul-28 05:28 103 1 gusting 2 16.7
2014-Jul-28 04:38 178 1 gusting 3 16.7
2014-Jul-28 04:28 187 2 gusting 3 16.7
2014-Jul-28 04:18 171 1 gusting 2 16.7
2014-Jul-28 04:08 186 2 gusting 2 17.2
2014-Jul-28 03:58 182 2 gusting 4 17.2
2014-Jul-28 03:48 197 2 gusting 2 16.7
2014-Jul-28 03:38 170 3 gusting 3 16.7
2014-Jul-28 03:28 187 0 gusting 3 16.7
2014-Jul-28 03:18 179 1 gusting 2 17.2
2014-Jul-28 03:08 171 2 gusting 4 16.7
2014-Jul-28 02:58 165 1 gusting 2 17.2
2014-Jul-28 02:48 184 0 gusting 2 17.2
2014-Jul-28 02:38 151 2 gusting 3 17.2
2014-Jul-28 02:08 148 1 gusting 2 17.2
2014-Jul-28 01:58 160 0 gusting 3 17.2
2014-Jul-28 01:48 169 2 gusting 4 17.2
2014-Jul-28 01:18 190 2 gusting 5 17.2
2014-Jul-28 01:08 155 2 gusting 4 17.2
2014-Jul-28 00:58 181 2 gusting 3 17.2
2014-Jul-28 00:38 180 2 gusting 4 17.2
2014-Jul-28 00:08 162 2 gusting 3 17.2
2014-Jul-27 23:58 174 1 gusting 5 17.8
2014-Jul-27 23:48 191 2 gusting 4 17.8
2014-Jul-27 23:38 179 2 gusting 4 17.8
2014-Jul-27 23:28 162 2 gusting 2 17.8
2014-Jul-27 23:18 178 0 gusting 2 17.8
2014-Jul-27 22:28 189 1 gusting 2 18.3
2014-Jul-27 22:08 161 4 gusting 5 18.3
2014-Jul-27 21:58 180 1 gusting 1 18.3
2014-Jul-27 21:28 208 2 gusting 2 19.4
2014-Jul-27 21:08 300 0 gusting 1 19.4
2014-Jul-27 20:48 298 19.4
2014-Jul-27 20:28 279 0 gusting 1 19.4
2014-Jul-27 20:08 315 0 gusting 3 20.0
2014-Jul-27 19:58 309 1 gusting 3 20.0
2014-Jul-27 19:48 333 3 gusting 4 20.6
2014-Jul-27 19:38 005 3 gusting 6 20.6
2014-Jul-27 19:08 360 2 gusting 3 20.6
2014-Jul-27 18:58 015 2 gusting 3 20.6
2014-Jul-27 18:48 338 2 gusting 4 20.6
2014-Jul-27 18:38 042 2 gusting 6 20.6
2014-Jul-27 18:28 011 5 gusting 6 20.6
2014-Jul-27 18:18 323 2 gusting 5 20.6
2014-Jul-27 17:58 355 2 gusting 5 20.6
2014-Jul-27 17:48 022 2 gusting 3 20.6
2014-Jul-27 17:38 042 1 gusting 2 20.6
2014-Jul-27 17:28 355 1 gusting 3 20.6
2014-Jul-27 16:58 306 3 gusting 6 21.1
2014-Jul-27 16:38 330 3 gusting 4 21.1
2014-Jul-27 16:18 331 3 gusting 6 21.7
2014-Jul-27 16:08 030 1 gusting 3 21.1
2014-Jul-27 15:58 338 3 gusting 3 21.1
2014-Jul-27 15:48 336 2 gusting 3 21.1
2014-Jul-27 15:18 317 1 gusting 4 21.1
2014-Jul-27 14:58 319 4 gusting 6 21.1
2014-Jul-27 14:48 324 6 gusting 6 21.1
2014-Jul-27 14:38 337 1 gusting 6 21.1
2014-Jul-27 14:28 011 2 gusting 6 21.1
2014-Jul-27 14:08 343 3 gusting 6 21.1
2014-Jul-27 13:58 030 3 gusting 3 21.7
2014-Jul-27 13:48 355 4 gusting 6 21.1
2014-Jul-27 13:28 333 1 gusting 2 21.7
2014-Jul-27 13:18 340 4 gusting 6 21.7
2014-Jul-27 13:08 342 3 gusting 6 21.7
2014-Jul-27 12:48 325 3 gusting 8 21.7
2014-Jul-27 12:38 047 5 gusting 6 21.7
2014-Jul-27 12:08 015 5 gusting 7 22.2
2014-Jul-27 11:58 326 4 gusting 6 22.2
2014-Jul-27 11:28 342 6 gusting 7 22.2
2014-Jul-27 11:18 005 1 gusting 5 22.8
2014-Jul-27 11:08 344 3 gusting 7 22.8
2014-Jul-27 10:58 022 4 gusting 6 22.2
2014-Jul-27 10:48 332 3 gusting 7 22.2
2014-Jul-27 10:38 355 6 gusting 7 22.2
2014-Jul-27 10:08 355 6 gusting 6 21.7
2014-Jul-27 09:58 023 2 gusting 6 22.2
2014-Jul-27 09:28 061 1 gusting 3 21.1
2014-Jul-27 09:18 328 2 gusting 4 21.1
2014-Jul-27 09:08 333 0 gusting 2 21.1
2014-Jul-27 08:58 338 2 gusting 2 21.7
2014-Jul-27 08:48 036 2 gusting 3 21.1
2014-Jul-27 08:08 232 0 gusting 1 20.0
2014-Jul-27 07:48 197 0 gusting 1 18.9
2014-Jul-27 07:18 180 2 gusting 6 16.7
2014-Jul-27 06:58 159 1 gusting 6 16.7
2014-Jul-27 06:48 173 3 gusting 4 16.7
2014-Jul-27 06:38 198 2 gusting 5 16.7
2014-Jul-27 06:18 160 2 gusting 3 16.7
2014-Jul-27 06:08 159 2 gusting 3 16.7
2014-Jul-27 05:58 153 2 gusting 4 16.7
2014-Jul-27 05:38 180 2 gusting 5 16.7
2014-Jul-27 05:28 170 5 gusting 5 16.7
2014-Jul-27 05:18 179 2 gusting 6 16.7
2014-Jul-27 04:58 146 3 gusting 4 16.7
2014-Jul-27 04:38 173 2 gusting 5 16.7
2014-Jul-27 04:28 179 1 gusting 5 16.7
2014-Jul-27 04:08 177 2 gusting 3 16.7
2014-Jul-27 03:58 190 2 gusting 4 16.7
2014-Jul-27 03:28 173 4 gusting 4 16.7
2014-Jul-27 03:18 170 2 gusting 3 16.7
2014-Jul-27 02:48 150 2 gusting 5 16.7
2014-Jul-27 02:28 175 2 gusting 4 16.7
2014-Jul-27 02:08 168 2 gusting 6 16.7
2014-Jul-27 01:58 154 2 gusting 4 16.7
2014-Jul-27 01:48 161 2 gusting 5 16.7
2014-Jul-27 00:58 153 2 gusting 4 16.7
2014-Jul-27 00:48 184 1 gusting 4 16.7
2014-Jul-27 00:38 161 2 gusting 4 17.2
2014-Jul-27 00:08 175 2 gusting 3 17.2
2014-Jul-26 23:38 166 2 gusting 2 17.8
2014-Jul-26 23:28 171 1 gusting 3 17.8
2014-Jul-26 22:58 188 1 gusting 3 17.8
2014-Jul-26 22:48 167 2 gusting 4 18.3
2014-Jul-26 22:38 161 1 gusting 4 18.3
2014-Jul-26 22:18 157 2 gusting 2 18.9
2014-Jul-26 21:48 209 1 gusting 1 19.4
2014-Jul-26 21:18 329 0 gusting 2 19.4
2014-Jul-26 21:08 329 0 gusting 1 20.0
2014-Jul-26 20:48 313 2 gusting 2 20.0
2014-Jul-26 20:18 005 1 gusting 1 20.0